Location: Colorado Springs
(38.8340°N, 104.8210°W)
Time: 10:44:28
(UTC-07:00)

Vanguard 3 - All Passes

Search period start: 12 December 2017 00:00
Search period end: 22 December 2017 00:00
Orbit: 509 x 3263 km, 33.3° (Epoch: 11 December)

Date Brightness Start Highest point End Pass type
(mag) Time Alt. Az. Time Alt. Az. Time Alt. Az.
12 Dec - 10:50:29 10° S 10:51:42 11° SSE 10:52:50 10° SE daylight
12 Dec - 12:59:26 10° SW 13:02:54 28° SSE 13:06:07 10° ESE daylight
12 Dec - 15:10:23 10° WSW 15:13:49 37° S 15:18:04 10° ESE daylight
12 Dec - 17:21:30 10° WSW 17:25:07 23° SSW 17:30:08 10° SE visible
13 Dec - 11:46:05 10° SW 11:49:42 21° SSE 11:52:41 10° ESE daylight
13 Dec - 13:57:12 10° WSW 14:00:42 37° S 14:04:18 10° ESE daylight
13 Dec - 16:08:20 10° WSW 16:11:43 28° S 16:16:07 10° SE daylight
13 Dec - 18:21:03 10° SW 18:23:23 12° SSW 18:26:07 10° S visible
14 Dec - 10:32:48 10° SSW 10:36:18 16° SSE 10:39:06 10° SE daylight
14 Dec - 12:43:41 10° WSW 12:47:35 32° S 12:50:55 10° ESE daylight
14 Dec - 14:55:10 10° WSW 14:58:32 33° S 15:02:20 10° ESE daylight
14 Dec - 17:06:53 10° WSW 17:09:44 17° SSW 17:13:18 10° SSE visible
15 Dec - 09:20:12 10° S 09:22:36 12° SSE 09:24:41 10° SE daylight
15 Dec - 11:29:49 10° SW 11:34:21 27° SSE 11:37:46 10° ESE daylight
15 Dec - 13:41:44 10° WSW 13:45:25 37° S 13:48:53 10° ESE daylight
15 Dec - 15:53:22 10° WSW 15:56:22 22° SSW 15:59:58 10° SE daylight
16 Dec - 10:15:48 10° SSW 10:20:54 22° SSE 10:24:35 10° ESE daylight
16 Dec - 12:27:52 10° WSW 12:32:16 37° S 12:35:45 10° ESE daylight
16 Dec - 14:39:55 10° WSW 14:43:12 29° S 14:46:40 10° SE daylight
16 Dec - 16:52:49 10° SW 16:54:20 12° SSW 16:56:01 10° S daylight
17 Dec - 09:01:58 10° SSW 09:07:08 17° SSE 09:11:00 10° ESE daylight
17 Dec - 11:13:33 10° SW 11:19:00 33° S 11:22:48 10° ESE daylight
17 Dec - 13:26:11 10° WSW 13:30:07 37° S 13:33:32 10° ESE daylight
17 Dec - 15:38:29 10° WSW 15:40:59 17° SSW 15:43:47 10° SSE daylight
18 Dec - 07:49:02 10° S 07:53:02 13° SSE 07:56:19 10° SE daylight
18 Dec - 09:58:57 10° SW 10:05:29 28° SSE 10:09:49 10° ESE daylight
18 Dec - 12:11:58 10° WSW 12:16:57 41° S 12:20:36 10° ESE daylight
18 Dec - 14:24:37 10° WSW 14:27:52 26° SSW 14:31:02 10° SE daylight
19 Dec - 08:44:21 10° SSW 08:51:37 24° SSE 08:56:33 10° ESE daylight
19 Dec - 10:57:14 10° WSW 11:03:37 40° S 11:07:47 10° ESE daylight
19 Dec - 13:10:33 10° WSW 13:14:47 36° S 13:18:13 10° ESE daylight
19 Dec - 15:23:45 10° SW 15:25:34 13° SSW 15:27:27 10° S daylight
20 Dec - 07:30:14 10° SSW 07:37:24 18° SSE 07:42:37 10° ESE daylight
20 Dec - 09:42:07 10° SW 09:50:01 36° SSE 09:54:55 10° ESE daylight
20 Dec - 11:56:00 10° WSW 12:01:36 45° S 12:05:27 10° ESE daylight
20 Dec - 14:09:15 10° WSW 14:12:29 22° SSW 14:15:25 10° SE daylight
21 Dec - 06:17:36 10° S 06:22:48 13° SSE 06:27:07 10° SE visible
21 Dec - 08:26:56 10° SW 08:36:02 30° SSE 08:41:48 10° ESE daylight
21 Dec - 10:40:51 10° WSW 10:48:12 46° S 10:52:44 10° ESE daylight
21 Dec - 12:54:49 10° W 12:59:26 35° SSW 13:02:56 10° SE daylight
